Wind_Speed
31 35 37 37 38 39 42 44 46 46 46 48 50 49 50 50 49 49 49 48 48 47 45 45 43 43 43 42 42 41 40 39 38 37 36 35 35 34 34 33 33 32 31 31
29 32 33 35 36 38 40 42 44 45 46 47 49 50 50 51 50 50 49 48 48 48 47 46 46 45 44 43 43 42 41 40 39 38 37 36 36 35 35 35 35 34 34 33
26 28 30 33 34 35 39 41 41 43 45 47 49 51 50 50 50 50 50 49 49 49 49 49 46 46 45 44 43 43 43 41 40 40 39 38 37 37 37 36 36 35 35 35
25 28 29 30 32 34 36 38 40 41 43 45 48 51 51 50 50 50 50 49 49 48 48 48 47 46 45 45 44 44 44 43 42 42 40 40 39 38 38 37 37 37 36 35
24 26 28 28 29 31 33 36 38 39 41 44 45 50 51 50 50 50 49 48 47 47 47 46 46 46 46 46 45 45 45 43 43 43 42 41 41 40 39 37 37 37 36 35
22 24 26 27 28 30 30 33 37 37 38 43 44 46 49 49 48 48 48 47 47 47 47 46 45 46 46 46 45 45 44 44 44 44 43 43 42 41 40 39 38 37 37 37
21 23 24 26 28 29 29 31 33 34 37 40 41 44 46 46 46 47 47 47 47 47 47 46 45 45 45 46 45 45 44 44 44 44 43 43 44 43 41 40 39 38 38 38
19 22 24 25 27 28 29 30 33 34 37 38 40 42 43 43 44 45 45 46 46 46 46 45 45 45 46 45 44 45 44 43 44 44 44 44 44 43 42 40 40 39 39 39
18 20 23 24 25 27 28 29 31 32 35 36 39 39 41 42 42 42 43 43 45 45 44 44 44 45 45 46 45 45 45 44 44 44 43 43 43 42 42 41 41 40 40 39
17 18 21 24 26 28 28 28 30 31 32 36 37 39 40 40 40 41 42 42 43 43 43 43 44 44 45 45 46 46 46 44 44 45 44 44 43 43 42 42 42 41 41 41
18 19 20 23 26 28 29 28 30 32 32 34 36 38 38 38 39 40 40 41 41 42 42 42 43 44 45 45 45 45 45 45 45 45 45 44 43 43 43 42 42 42 42 41
17 19 20 23 25 28 30 29 29 31 31 33 36 37 36 37 37 38 38 39 40 41 41 42 43 44 45 45 45 45 44 44 45 45 44 44 44 43 43 42 42 42 42 42
17 19 20 23 26 28 30 30 30 31 31 31 34 36 38 37 36 36 37 38 40 41 41 42 43 43 44 44 44 45 45 44 43 44 43 43 43 42 42 42 42 42 42 42
16 18 20 23 26 29 30 31 31 32 33 32 31 33 36 38 37 37 37 38 38 40 41 41 42 42 43 44 44 44 44 44 43 43 43 43 42 42 42 42 42 42 42 43
16 17 19 20 23 28 30 30 30 31 33 33 32 33 34 36 37 37 38 38 38 39 40 41 41 42 42 42 44 44 44 44 44 43 43 43 43 42 42 41 42 42 43 43
16 17 18 19 20 25 28 29 29 30 31 32 33 33 34 35 36 37 37 37 38 39 39 40 41 41 41 42 43 44 45 44 44 43 43 43 43 42 42 42 42 42 42 43
15 16 17 18 19 22 24 26 27 27 29 32 33 32 34 35 36 36 36 37 37 38 39 40 40 41 42 42 42 43 43 43 43 43 42 42 42 42 42 42 42 43 43 43
15 16 17 17 18 21 22 23 26 28 29 30 30 31 32 33 35 36 36 36 37 38 38 39 40 41 41 42 42 43 42 41 41 41 41 42 42 42 42 42 43 43 44 44
16 16 17 17 19 20 21 22 23 26 29 31 31 30 31 32 33 34 35 35 36 36 37 38 39 40 41 42 42 42 42 42 41 42 41 42 42 42 42 43 44 44 44 44
16 16 17 17 19 20 21 23 23 24 26 28 31 32 31 31 32 32 33 34 35 35 36 37 38 39 40 42 42 42 41 41 41 42 42 42 42 42 43 43 43 43 43 44
17 18 18 18 19 20 21 22 23 24 24 25 28 31 32 32 33 33 33 33 34 34 35 36 37 38 39 40 41 42 42 41 41 41 41 41 41 42 42 42 42 41 42 42
19 20 20 21 20 20 21 22 23 24 24 25 27 28 30 31 32 33 33 33 33 34 36 37 37 37 38 39 40 41 41 42 41 41 41 41 41 41 41 40 40 40 40 40
20 21 22 22 21 21 22 22 23 24 24 25 26 27 29 30 31 31 32 32 33 33 35 36 37 37 37 38 39 40 40 41 42 42 41 40 40 40 39 38 38 39 39 39
20 20 21 22 21 22 22 22 23 24 25 25 26 27 28 29 30 31 31 31 31 32 34 35 36 35 35 36 37 37 38 38 38 40 40 40 40 40 39 39 38 38 38 38
20 21 21 20 20 21 22 22 23 24 25 26 26 26 27 29 30 31 31 31 31 31 32 33 35 35 35 35 36 37 36 37 38 38 38 39 39 39 39 38 38 38 39 38
21 21 21 20 21 22 21 21 21 22 24 26 27 27 27 28 29 30 30 31 32 32 32 33 34 33 34 34 35 36 36 36 36 36 36 37 36 36 37 37 38 37 38 37
Wind_Direction
229 228 228 228 230 231 229 229 228 227 227 227 228 227 226 226 226 226 225 226 227 228 228 227 228 230 232 234 235 237 239 241 243 244 246 248 248 250 251 253 256 259 262 266
226 226 227 227 228 229 227 227 228 227 226 227 227 227 226 226 227 227 227 227 227 228 229 228 229 231 232 234 235 237 239 241 243 244 246 248 248 249 252 254 256 259 262 266
227 226 227 227 227 227 226 226 227 228 227 227 227 226 226 226 227 227 228 228 228 228 229 229 230 230 232 234 235 238 240 242 243 245 247 248 249 249 251 252 255 259 262 265
229 226 226 227 227 227 227 226 227 228 228 227 227 228 225 226 227 227 228 230 231 230 231 230 231 230 232 234 236 237 240 242 244 245 247 249 250 250 251 253 256 259 262 265
229 226 224 225 225 226 227 227 227 228 229 229 228 229 226 226 227 227 228 230 232 232 232 233 232 231 233 234 236 238 240 241 243 245 247 249 249 250 251 253 256 259 262 265
229 228 227 226 224 225 226 227 227 229 230 230 228 230 228 226 227 228 229 230 231 232 233 233 233 232 234 235 236 239 241 242 243 245 246 247 247 250 252 254 256 258 261 264
229 229 228 226 224 223 224 225 226 227 228 230 229 230 229 227 227 228 229 229 231 233 234 234 235 235 235 235 236 238 241 242 244 245 245 246 248 251 253 254 256 257 260 264
232 229 229 227 224 222 222 224 226 228 230 231 230 230 228 227 227 228 229 230 230 232 233 234 235 236 236 236 236 237 240 242 244 245 247 248 250 250 251 254 256 258 260 263
239 233 230 229 224 222 223 222 225 231 233 233 233 232 231 229 227 227 228 229 231 232 233 234 235 236 237 238 238 239 240 242 243 244 246 248 249 250 251 253 255 257 260 262
246 237 229 229 225 223 225 226 228 231 234 235 235 233 232 230 231 231 230 231 231 232 234 234 235 236 238 239 240 240 241 243 244 244 246 248 249 251 252 253 255 258 260 262
248 243 232 229 227 226 226 228 231 233 237 236 236 233 233 232 232 232 233 233 233 234 234 235 236 237 238 238 239 240 242 242 244 245 247 248 249 250 252 254 256 258 260 262
248 245 238 232 230 229 229 229 232 235 237 238 237 235 232 233 232 232 232 233 233 234 235 236 237 237 238 239 240 241 242 244 245 246 248 249 251 252 254 255 256 258 260 262
254 249 244 236 232 230 231 230 232 236 237 238 238 237 233 234 234 233 232 233 234 234 234 235 236 238 239 240 241 242 243 244 245 246 248 250 251 253 253 255 257 258 260 262
260 256 249 243 237 235 234 232 234 238 238 239 238 236 234 235 235 235 233 233 233 234 235 235 235 237 238 239 240 241 242 243 246 247 249 249 251 252 253 255 257 258 260 261
263 259 254 248 243 240 238 235 237 240 240 241 240 238 236 236 235 235 235 234 233 234 234 234 235 236 237 239 240 241 242 244 245 247 249 249 250 252 254 256 257 259 260 262
268 264 257 251 248 245 241 238 240 242 241 242 241 240 239 238 236 234 235 235 235 235 235 235 235 236 237 239 240 240 243 244 246 248 249 250 251 253 254 256 258 260 262 263
274 270 264 259 255 253 248 243 244 244 243 243 242 241 240 239 238 237 236 237 237 237 238 237 237 237 237 238 239 240 242 244 247 249 250 251 252 253 254 256 258 260 262 263
279 276 271 267 264 261 253 247 246 245 243 242 242 240 240 239 238 238 238 238 238 238 239 239 238 238 238 239 239 240 242 244 246 248 250 252 253 253 254 257 260 261 262 263
283 279 276 270 268 266 259 252 250 247 244 243 243 242 241 240 239 237 238 239 238 238 239 239 238 239 239 239 240 241 243 245 246 248 250 253 253 254 257 259 260 261 263 265
285 281 278 273 273 269 263 259 257 252 249 246 245 243 242 240 239 238 238 239 239 240 240 240 239 240 240 240 241 242 244 246 247 249 251 253 254 256 258 260 261 263 265 266
288 283 281 279 277 272 266 263 260 256 252 249 246 244 243 242 241 240 240 241 242 242 241 240 239 239 240 241 243 243 244 246 248 249 251 253 255 256 258 259 260 263 265 266
290 286 284 281 277 274 268 266 262 258 254 251 248 245 243 242 242 242 243 243 244 244 242 240 240 240 242 243 244 244 246 247 248 250 252 253 254 256 258 259 261 262 264 265
293 287 283 280 277 274 271 269 265 260 256 253 250 246 244 242 242 243 245 245 246 246 243 241 240 241 242 243 244 245 247 248 250 251 253 253 255 257 258 259 260 262 264 266
299 290 285 281 276 274 272 270 267 262 257 254 252 248 244 243 243 245 247 248 248 247 244 243 241 240 242 244 245 246 248 249 251 252 254 255 256 257 258 259 260 262 264 267
301 294 290 284 280 277 274 272 269 263 259 255 253 251 247 246 246 246 247 247 247 247 245 244 242 242 244 245 246 247 248 250 252 253 254 256 256 257 258 259 261 263 266 267
302 299 295 290 283 280 277 272 269 266 262 258 255 253 250 249 249 249 248 247 245 245 245 243 243 244 245 247 247 248 249 250 250 252 253 255 257 258 259 261 262 263 265 267
Height
5605 5610 5615 5623 5630 5636 5642 5648 5655 5662 5667 5673 5680 5687 5694 5700 5706 5713 5719 5725 5731 5737 5742 5747 5752 5758 5762 5767 5771 5775 5779 5782 5786 5789 5792 5794 5796 5798 5800 5801 5802 5803 5804 5805
5600 5604 5612 5617 5622 5628 5633 5640 5647 5653 5659 5665 5671 5678 5685 5691 5698 5705 5711 5718 5723 5729 5734 5740 5745 5750 5755 5759 5763 5767 5771 5775 5779 5782 5784 5787 5789 5791 5793 5794 5795 5796 5797 5798
5595 5601 5605 5610 5615 5621 5627 5634 5640 5646 5652 5656 5663 5669 5676 5683 5690 5696 5703 5709 5715 5720 5725 5731 5736 5741 5747 5752 5756 5760 5764 5767 5771 5774 5777 5779 5781 5783 5785 5787 5788 5790 5790 5791
5590 5595 5599 5604 5610 5615 5621 5628 5633 5638 5644 5648 5654 5660 5668 5675 5681 5688 5695 5702 5708 5713 5718 5724 5728 5733 5739 5744 5748 5752 5755 5759 5763 5766 5768 5771 5774 5776 5777 5779 5781 5782 5782 5783
5586 5591 5595 5599 5605 5610 5616 5621 5626 5631 5636 5640 5645 5651 5660 5666 5673 5681 5688 5694 5700 5706 5711 5716 5721 5725 5730 5735 5739 5744 5747 5751 5754 5757 5760 5763 5766 5768 5769 5771 5773 5774 5775 5776
5583 5586 5590 5595 5600 5605 5610 5615 5619 5623 5627 5632 5638 5643 5651 5659 5668 5675 5681 5686 5692 5697 5702 5707 5712 5717 5721 5726 5730 5735 5738 5742 5745 5748 5751 5754 5757 5759 5761 5763 5765 5766 5767 5768
5579 5582 5586 5590 5594 5598 5603 5608 5613 5616 5619 5624 5632 5635 5644 5654 5661 5667 5673 5678 5683 5688 5693 5699 5703 5708 5713 5717 5722 5726 5730 5733 5737 5740 5742 5745 5748 5751 5753 5755 5756 5758 5759 5760
5576 5579 5582 5585 5589 5593 5598 5603 5608 5611 5615 5620 5625 5629 5640 5646 5652 5658 5664 5670 5675 5680 5685 5690 5695 5699 5703 5708 5712 5717 5721 5724 5728 5731 5734 5737 5739 5741 5744 5746 5748 5750 5751 5752
5573 5576 5579 5582 5586 5590 5593 5597 5603 5607 5610 5614 5618 5625 5633 5639 5645 5650 5656 5661 5667 5672 5676 5681 5685 5690 5694 5699 5703 5707 5711 5715 5718 5721 5724 5727 5730 5732 5735 5737 5739 5741 5742 5743
5570 5573 5576 5578 5582 5585 5589 5593 5597 5601 5604 5608 5613 5619 5626 5633 5638 5643 5648 5653 5658 5663 5667 5672 5677 5681 5685 5690 5694 5698 5702 5705 5708 5712 5715 5718 5721 5723 5726 5728 5730 5732 5733 5734
5567 5570 5572 5575 5578 5581 5585 5589 5592 5595 5599 5603 5607 5615 5620 5626 5631 5635 5640 5645 5650 5654 5659 5663 5668 5672 5676 5680 5684 5688 5692 5696 5699 5702 5705 5708 5711 5714 5716 5718 5720 5722 5723 5724
5564 5566 5568 5571 5574 5576 5580 5584 5587 5591 5594 5597 5601 5611 5613 5618 5623 5627 5632 5636 5641 5645 5650 5654 5659 5663 5667 5671 5675 5679 5683 5686 5689 5692 5695 5698 5701 5704 5706 5708 5710 5712 5713 5714
5561 5563 5564 5567 5571 5572 5575 5578 5582 5585 5588 5591 5595 5604 5606 5610 5615 5619 5623 5627 5632 5636 5640 5645 5649 5654 5658 5662 5666 5670 5674 5677 5680 5683 5686 5689 5691 5694 5696 5698 5700 5702 5703 5704
5558 5560 5562 5564 5565 5567 5570 5574 5577 5579 5582 5585 5590 5595 5599 5603 5607 5610 5614 5618 5623 5627 5632 5636 5640 5645 5649 5653 5657 5660 5664 5668 5671 5674 5676 5679 5682 5684 5686 5688 5690 5691 5693 5694
5555 5556 5557 5559 5560 5563 5565 5568 5571 5573 5576 5579 5584 5587 5592 5595 5598 5602 5606 5610 5614 5619 5623 5627 5631 5636 5640 5644 5647 5651 5654 5658 5661 5664 5667 5669 5672 5674 5676 5678 5680 5681 5683 5684
5551 5552 5553 5555 5556 5557 5559 5563 5565 5567 5570 5573 5576 5580 5583 5586 5590 5594 5598 5602 5606 5610 5614 5618 5622 5626 5630 5634 5638 5641 5645 5649 5651 5654 5657 5659 5662 5664 5666 5668 5670 5671 5672 5673
5548 5548 5549 5550 5551 5552 5554 5557 5558 5561 5563 5566 5569 5573 5575 5578 5582 5586 5590 5594 5597 5601 5605 5609 5613 5617 5621 5625 5628 5632 5635 5639 5642 5645 5647 5650 5652 5654 5656 5658 5660 5661 5662 5663
5545 5544 5544 5545 5547 5547 5552 5551 5552 5554 5557 5559 5561 5564 5567 5570 5574 5578 5581 5585 5589 5592 5596 5600 5604 5608 5612 5615 5619 5622 5626 5629 5632 5635 5637 5639 5642 5644 5646 5648 5649 5650 5652 5653
5542 5541 5541 5541 5541 5542 5545 5546 5546 5548 5551 5553 5555 5557 5560 5562 5566 5570 5573 5577 5580 5584 5587 5591 5595 5599 5602 5606 5609 5613 5616 5619 5622 5625 5627 5629 5632 5634 5636 5637 5639 5640 5641 5642
5539 5538 5538 5537 5536 5537 5540 5540 5540 5543 5544 5547 5548 5550 5552 5555 5559 5563 5565 5569 5572 5575 5578 5582 5585 5589 5593 5596 5600 5603 5606 5609 5612 5615 5617 5619 5621 5623 5625 5626 5628 5629 5630 5631
5535 5534 5534 5533 5532 5533 5534 5534 5535 5537 5539 5540 5541 5543 5545 5547 5551 5555 5557 5560 5563 5566 5569 5572 5576 5580 5583 5586 5589 5593 5596 5599 5602 5605 5607 5609 5610 5612 5614 5615 5617 5618 5619 5620
5531 5530 5529 5528 5527 5530 5527 5528 5529 5530 5531 5532 5534 5535 5537 5540 5543 5546 5549 5552 5555 5558 5560 5563 5567 5570 5573 5577 5580 5583 5586 5590 5592 5595 5596 5598 5600 5602 5603 5604 5606 5607 5608 5609
5527 5526 5523 5523 5525 5523 5522 5522 5522 5523 5524 5525 5526 5528 5530 5532 5535 5538 5541 5544 5546 5549 5552 5555 5558 5561 5564 5567 5570 5574 5577 5580 5582 5584 5586 5588 5590 5591 5593 5594 5596 5597 5598 5599
5522 5520 5518 5517 5518 5517 5516 5515 5515 5516 5517 5518 5519 5521 5523 5525 5528 5531 5533 5535 5538 5540 5543 5546 5549 5553 5555 5558 5561 5564 5567 5569 5572 5574 5576 5578 5579 5581 5583 5584 5586 5587 5588 5589
5517 5514 5512 5511 5511 5510 5510 5509 5509 5509 5510 5511 5512 5513 5515 5518 5520 5523 5525 5527 5530 5532 5535 5537 5541 5544 5547 5549 5552 5555 5557 5560 5562 5564 5566 5567 5569 5571 5573 5574 5576 5577 5578 5578
5512 5510 5507 5506 5505 5504 5504 5503 5502 5503 5503 5504 5505 5506 5508 5510 5512 5514 5517 5519 5521 5524 5526 5529 5533 5536 5538 5541 5543 5545 5548 5550 5552 5555 5556 5558 5560 5561 5563 5564 5565 5566 5567 5568